Weather History for Kivalina, AK

Change the Weather History Date:

Tuesday, July 30, 2013

  Actual Average Record
Temperature  
Mean Temperature 47 °F -  
Max Temperature 48 °F - - ()
Min Temperature 46 °F - - ()
Degree Days  
Heating Degree Days 18    
Moisture  
Dew Point 47 °F    
Average Humidity 100    
Maximum Humidity 100    
Minimum Humidity 100    
Precipitation  
Precipitation 0.03 in - - ()
Sea Level Pressure  
Sea Level Pressure 30.14 in    
Wind  
Wind Speed 16 mph (SSW)    
Max Wind Speed 23 mph    
Max Gust Speed -    
Visibility 6 miles    
Events Rain    
T = Trace of Precipitation, MM = Missing Value Source: NWS Daily Summary

Daily Weather History Graph

Daily Weather History Graph

Search for Another Location

Airport:

Trip Planner

Search our weather history database for the weather conditions in past years. The results will help you decide how hot, cold, wet, or windy it might be!

Date:

Astronomy

Jul. 30, 2013 Rise Set
Actual Time 5:10 AM AKDT 12:54 AM AKDT
Civil Twilight Sun does not rise 2:32 AM AKDT
Nautical Twilight Sun does not rise Sun does not rise
Astronomical Twilight Sun does not rise Sun does not rise
Moon 12:16 AM AKDT (7/30) 7:14 PM AKDT (7/30)
Length of Visible Light 24h 00m
Length of Day
19h 43m
Last Quarter, 39% of the Moon is Illuminated
Jul 30
Last Quarter
Aug 6
New
Aug 14
First Quarter
Aug 20
Full
Aug 28
Last Quarter

Hourly Weather History & Observations

Time (AKDT) Temp. Windchill Dew Point Humidity Pressure Visibility Wind Dir Wind Speed Gust Speed Precip Events Conditions
12:41 AM 48.2 °F - 48.2 °F 100% 30.13 in 6.0 mi SSW 15.0 mph - 0.00 in Rain Light Rain
12:53 AM 48.0 °F - 48.0 °F 100% 30.13 in 6.0 mi SSW 15.0 mph - 0.00 in Rain Light Rain
1:53 AM 48.0 °F - 48.0 °F 100% 30.13 in 6.0 mi South 17.3 mph - 0.02 in Rain Light Rain
2:53 AM 48.0 °F - 48.0 °F 100% 30.12 in 8.0 mi SSW 18.4 mph - 0.00 in   Overcast
3:16 AM 48.2 °F - 48.2 °F 100% 30.12 in 7.0 mi SSW 18.4 mph - N/A   Overcast
3:53 AM 48.0 °F - 48.0 °F 100% 30.12 in 7.0 mi South 17.3 mph - N/A   Overcast
4:12 AM 48.2 °F - 48.2 °F 100% 30.12 in 6.0 mi South 16.1 mph - N/A   Overcast
4:24 AM 48.2 °F - 48.2 °F 100% 30.12 in 6.0 mi SSE 15.0 mph - N/A   Overcast
4:53 AM 48.9 °F - 48.9 °F 100% 30.12 in 6.0 mi South 16.1 mph - N/A   Overcast
5:14 AM 48.2 °F - 48.2 °F 100% 30.11 in 7.0 mi South 17.3 mph - N/A   Overcast
5:53 AM 48.9 °F - 48.9 °F 100% 30.10 in 7.0 mi South 19.6 mph - N/A   Overcast
6:29 AM 48.2 °F - 48.2 °F 100% 30.09 in 7.0 mi South 20.7 mph - N/A   Overcast
6:53 AM 48.0 °F - 48.0 °F 100% 30.09 in 6.0 mi South 20.7 mph - N/A   Overcast
7:10 AM 48.2 °F - 48.2 °F 100% 30.09 in 5.0 mi SSW 23.0 mph - N/A   Overcast
7:53 AM 48.0 °F - 48.0 °F 100% 30.09 in 5.0 mi SSW 20.7 mph - N/A   Overcast
8:37 AM 48.2 °F - 48.2 °F 100% 30.09 in 4.0 mi SSW 20.7 mph - 0.00 in   Overcast
8:53 AM 48.0 °F - 48.0 °F 100% 30.10 in 4.0 mi SSW 20.7 mph - 0.00 in   Overcast
9:53 AM 46.9 °F - 46.9 °F 100% 30.10 in 4.0 mi SSW 23.0 mph - N/A   Overcast
10:53 AM 46.9 °F - 46.9 °F 100% 30.11 in 4.0 mi SW 20.7 mph - N/A   Overcast
11:53 AM 46.0 °F 38.5 °F 46.0 °F 100% 30.12 in 4.0 mi SW 19.6 mph - N/A   Overcast
12:53 PM 46.0 °F 39.3 °F 46.0 °F 100% 30.13 in 3.0 mi SW 16.1 mph - 0.00 in   Overcast
1:42 PM 46.4 °F 39.8 °F 46.4 °F 100% 30.14 in 4.0 mi SW 16.1 mph - 0.00 in Rain Light Rain
1:53 PM 46.0 °F 39.6 °F 46.0 °F 100% 30.14 in 4.0 mi SW 15.0 mph - 0.00 in   Overcast
2:53 PM 46.0 °F 39.9 °F 46.0 °F 100% 30.15 in 5.0 mi SW 13.8 mph - 0.01 in Rain Light Rain
3:53 PM 46.0 °F 40.2 °F 46.0 °F 100% 30.15 in 6.0 mi SW 12.7 mph - N/A   Overcast
4:53 PM 46.0 °F 40.2 °F 46.0 °F 100% 30.16 in 6.0 mi SW 12.7 mph - N/A   Overcast
5:08 PM 46.4 °F 41.1 °F 46.4 °F 100% 30.16 in 6.0 mi SW 11.5 mph - N/A   Overcast
5:39 PM 46.4 °F 40.4 °F 46.4 °F 100% 30.16 in 7.0 mi SSW 13.8 mph - N/A   Overcast
5:53 PM 46.0 °F 39.9 °F 46.0 °F 100% 30.16 in 7.0 mi SSW 13.8 mph - N/A   Overcast
6:07 PM 46.4 °F 40.7 °F 46.4 °F 100% 30.16 in 7.0 mi SW 12.7 mph - N/A   Overcast
6:40 PM 46.4 °F 40.7 °F 46.4 °F 100% 30.17 in 3.0 mi SW 12.7 mph - N/A   Overcast
6:53 PM 46.0 °F 40.2 °F 46.0 °F 100% 30.17 in 4.0 mi SSW 12.7 mph - N/A   Overcast
7:17 PM 46.4 °F 41.5 °F 46.4 °F 100% 30.17 in 6.0 mi SSW 10.4 mph - N/A   Overcast
7:53 PM 46.0 °F 40.6 °F 46.0 °F 100% 30.17 in 7.0 mi SSW 11.5 mph - N/A   Overcast
8:26 PM 46.4 °F 40.4 °F 46.4 °F 100% 30.17 in 7.0 mi SSW 13.8 mph - N/A   Overcast
8:46 PM 46.4 °F 40.7 °F 46.4 °F 100% 30.17 in 7.0 mi SSW 12.7 mph - N/A   Overcast
8:53 PM 46.0 °F 39.9 °F 46.0 °F 100% 30.17 in 7.0 mi SSW 13.8 mph - N/A   Overcast
9:25 PM 46.4 °F 41.1 °F 46.4 °F 100% 30.16 in 7.0 mi SSW 11.5 mph - N/A   Overcast
9:53 PM 46.9 °F - 46.9 °F 100% 30.17 in 7.0 mi SSW 11.5 mph - N/A   Overcast
10:08 PM 46.4 °F 41.5 °F 46.4 °F 100% 30.17 in 8.0 mi SW 10.4 mph - N/A   Overcast
10:50 PM 46.4 °F 42.4 °F 46.4 °F 100% 30.17 in 8.0 mi SSW 8.1 mph - N/A   Overcast
10:53 PM 46.9 °F - 46.9 °F 100% 30.17 in 8.0 mi SW 8.1 mph - N/A   Overcast
11:40 PM 46.4 °F 41.5 °F 46.4 °F 100% 30.17 in 7.0 mi South 10.4 mph - N/A   Overcast
11:53 PM 46.0 °F 41.4 °F 46.0 °F 100% 30.18 in 7.0 mi SSW 9.2 mph - N/A   Overcast